Location: Mexico
(19.4000°N, 99.1500°W)
Time: 05:21:47
(UTC-06:00)

ISS - Pass Details

Date: 09 April 2020
Orbit: 417 x 419 km, 51.6° (Epoch: 31 May)

Event Time Altitude Azimuth Distance (km) Brightness Sun altitude
Rises 19:16:54 0° 336° (NNW) 2,351 0.6 -6.4°
Reaches altitude 10° 19:19:14 10° 349° (N) 1,486 -0.7 -6.9°
Maximum altitude 19:22:04 26° 48° (NE) 863 -2.5 -7.6°
Enters shadow 19:24:46 11° 105° (ESE) 1,430 -1.7 -8.2°
